TimeCDT,TemperatureF,Dew PointF,Humidity,Sea Level PressureIn,VisibilityMPH,Wind Direction,Wind SpeedMPH,Gust SpeedMPH,PrecipitationIn,Events,Conditions,WindDirDegrees,DateUTC
12:53 AM,84.0,73.9,72,29.88,9.0,SSE,4.6,-,N/A,,Clear,150,2013-06-27 05:53:00
1:53 AM,82.9,73.9,74,29.88,9.0,SSE,6.9,-,N/A,,Clear,160,2013-06-27 06:53:00
2:53 AM,82.0,73.9,76,29.87,9.0,SSE,6.9,-,N/A,,Clear,160,2013-06-27 07:53:00
3:53 AM,80.1,73.0,79,29.88,8.0,SSE,5.8,-,N/A,,Clear,160,2013-06-27 08:53:00
4:53 AM,81.0,72.0,74,29.87,9.0,South,11.5,-,N/A,,Clear,170,2013-06-27 09:53:00
5:53 AM,80.1,72.0,76,29.89,8.0,SSE,6.9,-,N/A,,Clear,160,2013-06-27 10:53:00
6:53 AM,80.1,72.0,76,29.90,10.0,SSE,4.6,-,N/A,,Partly Cloudy,150,2013-06-27 11:53:00
7:53 AM,82.0,72.0,71,29.90,10.0,South,8.1,-,N/A,,Partly Cloudy,170,2013-06-27 12:53:00
8:53 AM,86.0,72.0,63,29.90,10.0,South,8.1,-,N/A,,Partly Cloudy,180,2013-06-27 13:53:00
9:53 AM,89.1,71.1,55,29.91,10.0,SSW,9.2,-,N/A,,Partly Cloudy,200,2013-06-27 14:53:00
10:53 AM,91.9,72.0,52,29.90,10.0,Variable,5.8,-,N/A,,Clear,0,2013-06-27 15:53:00
1:53 PM,98.1,73.0,44,29.89,10.0,ESE,10.4,-,N/A,,Mostly Cloudy,120,2013-06-27 18:53:00
2:53 PM,99.0,73.9,45,29.87,10.0,SE,9.2,-,N/A,,Mostly Cloudy,140,2013-06-27 19:53:00
3:53 PM,99.0,73.9,45,29.86,10.0,South,12.7,-,N/A,,Mostly Cloudy,170,2013-06-27 20:53:00
4:53 PM,99.0,73.9,45,29.85,10.0,SSE,9.2,-,N/A,,Mostly Cloudy,160,2013-06-27 21:53:00
5:53 PM,98.1,73.9,46,29.81,10.0,South,13.8,-,N/A,,Mostly Cloudy,180,2013-06-27 22:53:00
6:53 PM,97.0,75.0,49,29.80,10.0,SSE,15.0,-,N/A,,Mostly Cloudy,160,2013-06-27 23:53:00
7:53 PM,95.0,75.9,54,29.81,10.0,South,11.5,-,N/A,,Overcast,170,2013-06-28 00:53:00
8:53 PM,93.0,75.9,57,29.82,10.0,South,9.2,-,N/A,,Overcast,170,2013-06-28 01:53:00
9:47 PM,89.6,71.6,55,29.92,10.0,WNW,26.5,36.8,N/A,,Overcast,300,2013-06-28 02:47:00
9:53 PM,86.0,64.9,49,29.91,10.0,NW,25.3,41.4,N/A,,Overcast,310,2013-06-28 02:53:00
9:57 PM,86.0,64.9,49,29.93,10.0,WNW,18.4,41.4,N/A,,Overcast,300,2013-06-28 02:57:00
10:53 PM,84.0,64.0,51,29.92,10.0,West,9.2,-,N/A,,Overcast,270,2013-06-28 03:53:00
11:53 PM,82.9,62.1,49,29.85,10.0,West,10.4,-,N/A,,Overcast,260,2013-06-28 04:53:00